ZTF彗星

C/2021 D2 ( ZTF )

English version
Home page
Updated on September 18, 2021

---------------------------------------------------------------------

・ プロフィール

発見日 2021年2月19日
発見光度 19.5等
発見者 Zwicky Transient Facility

・ 写真集

・ 軌道要素

Epoch 2022 Jan. 21.0 TT = JDT 2459600.5
T 2022 Feb. 3.98309 TT                                  Rudenko
q   2.9462641            (2000.0)            P               Q
z  -0.0004854      Peri.  125.03088     -0.26330762     -0.52768840
 +/-0.0000054      Node   305.67855     +0.15105751     +0.80426029
e   1.0014302      Incl.   83.83073     +0.95281201     -0.27333192
From 400 observations 2021 Feb. 19-Sept. 1, mean residual 0".7.

・ 星図

・ 光度変化

        m1 = 8.7 + 5 logΔ + 10.0 log r

---------------------------------------------------------------------

軌道要素はM.P.E.C. 2021-R75に掲載されたものです。
星図はステラナビゲータ Ver.10 (アストロアーツ) で作成したものです。
光度グラフはComet for Windowsで作成したものです。

---------------------------------------------------------------------

Copyright(C) Seiichi Yoshida (comet@aerith.net). All rights reserved.